Peachtree City, GA

8:59 PM EDT on April 25, 2018 (GMT -0400)
Peachtree City-Falcon

Weather History for KFFC - January, 2014

Change the Weather History Date:

Tuesday, January 28, 2014

  Actual Average Record
Temperature  
Mean Temperature 27 °F 44 °F  
Max Temperature 32 °F 55 °F 73 °F (1999)
Min Temperature 22 °F 33 °F 19 °F (2003)
Degree Days  
Heating Degree Days 38 21  
Month to date heating degree days 775 627  
Since 1 July heating degree days 1892 1808  
Cooling Degree Days 0 0  
Month to date cooling degree days 0 0  
Year to date cooling degree days 0 0  
Moisture  
Dew Point 16 °F    
Average Humidity 62    
Maximum Humidity 92    
Minimum Humidity 31    
Precipitation  
Precipitation 0.07 in 0.19 in 2.06 in (2018)
Month to date precipitation 2.38 3.62  
Year to date precipitation 2.38 3.62  
Snow  
Snow 1.80 in - - ()
Month to date snowfall 1.8  
Since 1 July snowfall 1.8  
Snow Depth 0.00 in    
Sea Level Pressure  
Sea Level Pressure 30.18 in    
Wind  
Wind Speed 10 mph (NNW)    
Max Wind Speed 16 mph    
Max Gust Speed 20 mph    
Visibility 4 miles    
Events Fog , Snow    
T = Trace of Precipitation, MM = Missing Value Source: NWS Daily Summary

Daily Weather History Graph

Daily Weather History Graph

Search for Another Location

Airport or City:

Astronomy

Jan. 28, 2014 Rise Set
Actual Time 7:36 AM EST 6:06 PM EST
Civil Twilight 7:10 AM EST 6:32 PM EST
Nautical Twilight 6:40 AM EST 7:02 PM EST
Astronomical Twilight 6:11 AM EST 7:31 PM EST
Moon 5:15 AM EST (1/28) 3:56 PM EST (1/28)
Length of Visible Light 11h 21m
Length of Day
10h 29m
Waning Crescent, 7% of the Moon is Illuminated
Jan 28
Waning Crescent
Jan 30
New
Feb 6
First Quarter
Feb 14
Full
Feb 22
Last Quarter

Hourly Weather History & Observations

Time (EST) Temp. Windchill Dew Point Humidity Pressure Visibility Wind Dir Wind Speed Gust Speed Precip Events Conditions
12:53 AM 30.9 °F 21.2 °F 3.9 °F 32% 30.12 in 10.0 mi NNW 12.7 mph - N/A   Clear
1:53 AM 28.9 °F 19.2 °F 3.9 °F 35% 30.13 in 10.0 mi NNW 11.5 mph 19.6 mph N/A   Clear
2:53 AM 28.9 °F 20.4 °F 3.0 °F 33% 30.12 in 10.0 mi NNW 9.2 mph - N/A   Clear
3:53 AM 28.9 °F 18.2 °F 1.9 °F 32% 30.12 in 10.0 mi NNW 13.8 mph - N/A   Clear
4:53 AM 28.0 °F 20.0 °F 1.9 °F 33% 30.12 in 10.0 mi NNW 8.1 mph - N/A   Overcast
5:53 AM 28.0 °F 18.6 °F 1.9 °F 33% 30.12 in 10.0 mi North 10.4 mph - N/A   Overcast
6:53 AM 28.0 °F 20.0 °F 3.0 °F 34% 30.18 in 10.0 mi North 8.1 mph - N/A   Overcast
7:53 AM 27.0 °F 16.7 °F 3.0 °F 36% 30.18 in 10.0 mi NNW 11.5 mph - N/A   Overcast
8:53 AM 27.0 °F 17.3 °F 3.9 °F 37% 30.21 in 10.0 mi NNW 10.4 mph - N/A   Overcast
9:53 AM 27.0 °F 18.0 °F 3.9 °F 37% 30.23 in 10.0 mi NNW 9.2 mph - N/A   Overcast
10:53 AM 27.0 °F 18.0 °F 8.1 °F 45% 30.23 in 10.0 mi NNW 9.2 mph - 0.00 in   Overcast
11:53 AM 26.1 °F 17.6 °F 17.1 °F 69% 30.24 in 4.0 mi North 8.1 mph - 0.00 in Snow Light Snow
12:04 PM 26.1 °F 17.6 °F 18.0 °F 71% 30.22 in 2.0 mi NNW 8.1 mph - 0.00 in Snow Light Snow
12:12 PM 25.0 °F 15.5 °F 19.0 °F 78% 30.22 in 1.0 mi NW 9.2 mph - 0.00 in Snow Light Snow
12:22 PM 25.0 °F 15.5 °F 19.9 °F 81% 30.22 in 0.5 mi NW 9.2 mph - 0.00 in Snow Snow
12:53 PM 24.1 °F 15.2 °F 21.0 °F 88% 30.23 in 0.5 mi NNW 8.1 mph - 0.01 in Fog , Snow Snow
1:15 PM 25.0 °F 15.5 °F 21.9 °F 88% 30.18 in 0.5 mi North 9.2 mph - 0.00 in Fog , Snow Snow
1:24 PM 25.0 °F 14.8 °F 21.9 °F 88% 30.18 in 0.8 mi NNW 10.4 mph - 0.01 in Snow Light Snow
1:53 PM 25.0 °F 17.1 °F 23.0 °F 92% 30.19 in 0.8 mi NNW 6.9 mph - 0.02 in Snow Light Snow
1:56 PM 25.0 °F 16.3 °F 23.0 °F 92% 30.15 in 1.0 mi NNW 8.1 mph - 0.00 in Snow Light Snow
2:07 PM 25.0 °F 16.3 °F 21.9 °F 88% 30.15 in 1.0 mi North 8.1 mph - 0.00 in Snow Light Snow
2:21 PM 25.0 °F 15.5 °F 21.9 °F 88% 30.15 in 0.8 mi North 9.2 mph - 0.00 in Snow Light Snow
2:31 PM 25.0 °F 15.5 °F 21.9 °F 88% 30.15 in 1.0 mi North 9.2 mph - 0.01 in Snow Light Snow
2:37 PM 25.0 °F 16.3 °F 21.9 °F 88% 30.15 in 0.8 mi NNW 8.1 mph - 0.01 in Snow Light Snow
2:53 PM 25.0 °F 15.5 °F 21.9 °F 88% 30.19 in 0.8 mi NNW 9.2 mph - 0.01 in Snow Light Snow
3:11 PM 25.0 °F 14.8 °F 21.9 °F 88% 30.15 in 1.0 mi NNW 10.4 mph - 0.01 in Snow Light Snow
3:36 PM 25.0 °F 15.5 °F 21.9 °F 88% 30.14 in 1.2 mi NNW 9.2 mph - 0.01 in Snow Light Snow
3:51 PM 24.8 °F 15.3 °F 21.2 °F 86% 30.13 in 1.2 mi NNW 9.2 mph - 0.01 in Snow Light Snow
3:53 PM 25.0 °F 16.3 °F 21.9 °F 88% 30.17 in 1.0 mi North 8.1 mph - 0.01 in Snow Light Snow
4:27 PM 25.0 °F 18.1 °F 21.9 °F 88% 30.14 in 1.5 mi North 5.8 mph - 0.01 in Snow Light Snow
4:53 PM 25.0 °F 14.2 °F 21.0 °F 85% 30.17 in 1.0 mi NNW 11.5 mph - 0.01 in Snow Light Snow
5:36 PM 24.1 °F 12.5 °F 19.9 °F 84% 30.15 in 1.2 mi NNW 12.7 mph - 0.00 in Snow Light Snow
5:50 PM 23.0 °F 11.7 °F 19.4 °F 86% 30.15 in 1.2 mi NNW 11.5 mph - 0.00 in Snow Light Snow
5:53 PM 23.0 °F 12.4 °F 19.0 °F 85% 30.19 in 1.2 mi NNW 10.4 mph - 0.00 in Snow Light Snow
6:15 PM 23.0 °F 10.6 °F 19.0 °F 85% 30.16 in 2.5 mi NNW 13.8 mph - 0.00 in Snow Light Snow
6:45 PM 21.9 °F 11.0 °F 19.0 °F 89% 30.17 in 1.2 mi NW 10.4 mph - 0.01 in Snow Light Snow
6:53 PM 21.9 °F 10.4 °F 19.0 °F 89% 30.20 in 1.2 mi NNW 11.5 mph - 0.01 in Snow Light Snow
7:19 PM 21.9 °F 11.0 °F 18.0 °F 85% 30.18 in 2.0 mi NW 10.4 mph - 0.00 in Snow Light Snow
7:42 PM 21.9 °F 10.4 °F 18.0 °F 85% 30.19 in 1.5 mi NW 11.5 mph - 0.00 in Snow Light Snow
7:49 PM 21.2 °F 8.9 °F 17.6 °F 86% 30.19 in 1.5 mi NNW 12.7 mph - 0.00 in Snow Light Snow
7:53 PM 21.9 °F 10.4 °F 18.0 °F 85% 30.23 in 1.5 mi NNW 11.5 mph - 0.00 in Snow Light Snow
8:06 PM 21.9 °F 12.5 °F 18.0 °F 85% 30.19 in 2.0 mi NNW 8.1 mph - 0.00 in Snow Light Snow
8:48 PM 21.2 °F 11.7 °F 17.6 °F 86% 30.20 in 3.0 mi NNW 8.1 mph - 0.00 in Snow Light Snow
8:53 PM 21.9 °F 12.5 °F 19.0 °F 89% 30.23 in 4.0 mi North 8.1 mph - 0.00 in Snow Light Snow
9:53 PM 21.9 °F 12.5 °F 17.1 °F 82% 30.25 in 10.0 mi NW 8.1 mph - 0.00 in   Overcast
10:53 PM 21.9 °F 12.5 °F 16.0 °F 78% 30.26 in 10.0 mi NW 8.1 mph - N/A   Overcast
11:53 PM 21.9 °F 10.4 °F 16.0 °F 78% 30.26 in 10.0 mi NW 11.5 mph - N/A   Overcast